GFSNIL_sfc_30mbdewp_000.txt.gz
Dewpoint
36 35 35 33 30 27 27 26 27 26 27 27 27 27 28 29 29 30 30 30 32 32
36 34 32 30 29 27 26 24 27 27 26 27 29 29 29 29 28 29 30 30 31 31
32 32 28 27 26 24 24 24 25 25 25 25 26 26 26 27 28 28 29 29 30 30
29 28 25 24 23 23 25 24 24 24 24 24 24 24 25 25 26 26 26 26 27 27
27 24 23 23 25 26 25 25 25 24 24 23 23 23 23 23 22 23 23 23 24 24
25 23 23 27 26 27 27 24 24 23 23 23 23 22 22 22 22 22 22 23 23 23
23 25 27 27 26 26 25 26 25 24 23 22 21 20 20 20 20 21 22 24 26 26
32 31 30 26 26 26 26 25 24 21 20 21 21 19 18 21 22 22 23 23 24 24
35 30 26 25 25 24 24 21 19 20 20 21 19 19 22 25 24 23 23 23 23 24
34 27 24 23 23 23 20 20 19 19 20 20 21 22 25 25 24 24 24 23 23 23
25 22 22 23 22 19 18 18 18 19 20 21 22 23 24 24 23 24 25 25 24 24
20 21 22 20 18 18 18 18 19 19 21 22 22 24 24 24 25 27 27 26 26 25
21 20 18 17 17 17 17 16 20 20 24 24 23 24 25 26 27 28 27 27 29 28
20 16 16 17 16 15 16 19 21 25 24 23 24 24 24 25 25 27 26 26 25 25

GFSNIL_sfc_30mbdewp_003.txt.gz
Dewpoint
39 38 34 35 34 30 27 28 28 28 28 26 25 26 29 28 28 28 29 28 31 32
39 36 33 27 27 26 26 27 26 27 26 29 31 31 30 29 28 30 30 31 31 32
28 26 27 27 24 22 25 26 28 29 32 33 31 28 26 27 29 29 30 30 31 31
27 24 24 22 23 24 25 25 27 29 31 29 24 25 26 26 27 26 27 28 27 27
24 21 20 23 25 26 26 27 26 27 24 25 26 26 25 25 24 24 24 25 26 26
21 21 24 26 25 25 25 26 24 24 26 26 26 25 24 23 23 22 23 23 24 24
23 23 27 27 27 26 26 25 26 26 25 25 24 22 22 21 21 22 22 24 25 25
32 31 29 29 26 27 27 26 26 26 23 22 23 21 20 24 24 24 23 24 24 24
35 34 32 27 27 27 25 25 21 20 21 20 20 21 28 27 25 24 24 23 23 23
37 36 34 30 25 24 22 20 18 18 19 20 23 25 25 24 23 23 23 22 23 23
37 35 25 23 22 20 18 17 16 17 21 22 22 24 25 24 24 24 23 23 23 24
23 21 20 19 17 16 15 15 17 20 20 23 24 24 25 25 24 24 25 25 26 26
20 19 16 16 15 16 16 16 19 20 25 23 23 23 23 22 24 26 25 25 25 26
19 17 17 17 16 14 16 18 20 21 21 22 22 22 22 21 23 25 24 24 24 25

GFSNIL_sfc_30mbdewp_006.txt.gz
Dewpoint
39 39 40 38 36 35 32 30 31 32 34 35 35 35 35 35 36 33 29 28 28 29
33 34 33 31 31 31 30 30 32 36 38 40 40 39 34 31 28 31 30 28 29 30
28 28 28 26 25 27 31 35 38 39 38 38 36 32 30 30 29 27 29 29 30 30
25 25 25 24 26 27 29 31 31 31 32 32 31 29 28 27 27 27 27 27 27 27
25 24 23 26 26 27 27 26 26 27 27 27 27 28 26 26 25 24 23 24 24 24
22 22 25 25 26 26 25 25 26 25 25 26 26 26 26 24 23 23 23 23 24 25
23 24 27 26 27 26 26 25 25 25 27 27 27 25 24 23 24 24 24 24 24 24
30 30 29 28 29 32 28 27 28 27 24 23 22 20 25 25 24 24 23 23 24 23
35 35 36 36 34 32 29 26 22 20 19 19 20 24 27 27 25 23 22 22 22 22
39 38 35 35 33 27 22 19 17 16 17 20 23 23 25 25 23 23 24 23 23 22
36 33 28 23 21 18 16 15 16 17 20 21 22 25 23 24 24 24 24 24 24 24
23 21 19 16 16 16 16 15 15 19 22 23 22 24 23 22 22 23 24 26 25 25
21 18 17 17 16 15 15 17 21 22 22 21 21 22 21 21 23 24 23 23 23 24
21 19 19 16 16 16 18 20 20 19 19 19 20 21 22 22 23 24 23 23 23 24

GFSNIL_sfc_30mbdewp_012.txt.gz
Dewpoint
34 33 32 33 33 34 34 34 37 39 39 39 39 40 40 40 39 39 37 35 36 36
34 34 32 30 31 33 33 37 39 39 38 38 38 38 38 37 35 36 36 35 35 34
35 34 32 30 31 32 35 38 39 38 35 34 34 35 38 39 38 36 35 34 32 30
35 35 32 28 30 32 35 36 33 31 30 32 33 34 33 31 29 27 27 26 25 24
36 32 28 27 29 30 28 27 27 26 27 27 27 28 28 27 27 25 23 23 24 24
30 26 26 27 29 31 31 30 30 28 27 28 29 29 26 24 23 23 24 24 24 24
28 26 28 33 36 35 33 32 33 30 28 24 22 21 20 22 24 24 24 24 23 22
35 36 37 37 37 36 35 36 33 26 20 20 19 18 24 25 24 24 23 24 23 21
39 38 37 36 36 35 36 36 29 18 18 19 21 24 26 27 27 25 24 22 21 22
29 27 27 29 28 23 19 18 17 17 19 21 23 23 23 22 23 24 23 23 22 22
28 27 26 20 18 18 17 16 17 18 22 21 19 20 21 21 22 22 22 22 22 23
21 20 20 19 18 17 16 17 19 22 20 19 19 20 21 22 22 22 22 23 23 23
22 22 21 18 17 17 19 20 21 18 19 19 18 20 22 22 22 22 23 23 22 22
23 22 19 19 19 19 19 19 17 17 18 18 19 20 22 21 22 23 23 23 23 24

GFSNIL_sfc_30mbdewp_015.txt.gz
Dewpoint
39 38 37 35 36 35 34 35 39 39 39 40 40 40 39 38 38 37 36 35 35 35
38 38 36 37 36 34 35 38 39 40 39 40 40 40 38 37 36 36 36 36 35 34
38 37 37 35 33 33 36 39 39 39 35 34 34 36 36 36 37 36 35 34 34 33
38 37 32 30 31 33 37 37 33 30 30 31 32 31 31 31 31 31 30 30 28 27
35 29 28 29 31 32 30 30 31 33 34 32 30 30 30 28 27 25 23 22 23 21
30 28 29 34 35 35 34 35 35 34 33 31 27 22 21 20 20 20 21 23 23 24
33 31 36 37 37 36 36 35 35 35 34 32 26 20 19 21 22 23 23 24 24 22
37 38 38 36 32 33 32 32 35 32 23 21 20 18 23 22 23 23 22 22 22 21
31 31 29 30 31 32 30 22 20 19 19 20 20 24 24 23 20 20 20 20 19 19
30 30 27 25 21 21 20 19 18 19 20 21 20 20 21 21 19 19 20 19 19 18
25 22 22 21 20 19 19 18 18 20 21 19 18 19 20 21 21 21 21 20 20 20
23 21 21 20 19 19 19 19 20 19 18 18 18 18 21 22 21 21 21 21 21 21
22 22 21 20 19 20 20 19 20 18 19 20 20 20 21 21 20 20 20 21 21 22
22 22 21 20 20 19 19 21 22 22 22 22 20 20 20 19 20 20 21 21 20 24

GFSNIL_sfc_30mbdewp_021.txt.gz
Dewpoint
40 38 38 36 36 34 32 33 34 37 38 39 41 41 39 39 39 38 36 35 34 33
39 38 37 36 34 32 33 33 34 38 39 37 37 36 36 36 37 38 35 34 33 32
38 37 35 33 32 32 33 34 37 39 36 35 36 37 36 36 36 36 37 38 37 37
34 34 33 31 31 32 33 32 31 32 34 37 36 37 36 35 34 33 32 32 33 32
32 32 31 31 34 35 33 34 35 38 40 39 36 34 33 32 31 31 29 28 27 27
30 35 35 35 38 36 33 33 32 35 37 35 33 27 23 21 20 21 20 20 20 20
33 33 32 34 32 29 28 26 23 22 21 21 21 20 19 19 19 19 18 19 19 20
29 29 29 29 27 25 23 20 18 18 18 19 19 17 20 20 19 18 18 17 17 18
27 29 29 25 24 20 17 17 18 18 18 18 18 22 22 21 19 17 17 17 17 18
28 26 25 22 17 16 17 18 18 18 18 18 19 21 22 22 20 18 19 19 19 18
26 26 23 17 16 16 17 17 18 18 18 19 19 23 23 22 20 20 19 19 19 18
26 25 20 16 17 18 18 18 18 18 21 21 22 24 24 22 20 20 19 18 21 21
23 22 19 18 18 18 18 17 19 23 22 23 23 24 23 22 20 20 20 20 19 21
27 27 20 19 19 18 18 20 25 28 26 24 27 24 22 23 21 19 23 21 22 23

GFSNIL_sfc_30mbdewp_024.txt.gz
Dewpoint
42 41 40 39 37 36 36 36 37 41 41 41 41 41 40 39 40 39 39 37 36 36
41 40 38 37 36 36 35 35 37 38 40 38 37 39 39 37 37 38 39 39 38 38
36 36 36 35 35 35 36 36 36 38 38 38 39 38 38 37 38 38 37 36 37 37
33 34 35 35 37 39 37 36 35 38 40 39 39 37 37 35 34 32 33 33 32 32
32 37 36 36 35 36 38 35 35 34 36 38 37 36 35 32 30 30 29 27 27 26
31 34 32 33 35 34 33 31 30 27 26 26 25 25 23 21 22 22 22 22 22 23
30 32 31 32 33 32 30 27 24 23 22 22 21 21 21 22 23 22 21 21 22 22
29 30 30 32 31 29 27 22 22 21 22 22 21 20 22 22 22 21 21 20 20 21
29 29 29 29 29 26 21 21 21 22 22 22 20 23 23 23 22 22 22 20 20 22
31 29 27 26 25 20 21 21 21 21 22 22 24 23 25 24 23 22 21 21 21 21
30 28 27 27 23 21 21 21 21 22 23 24 23 26 25 25 24 22 21 21 19 19
28 26 28 25 21 21 21 21 22 22 25 25 24 25 26 28 24 23 21 20 21 22
27 25 26 29 26 22 22 21 27 27 27 27 25 27 27 25 27 24 22 21 21 22
35 36 35 33 25 23 23 23 27 28 28 27 26 26 24 25 25 24 22 21 20 21

GFSNIL_sfc_30mbdewp_027.txt.gz
Dewpoint
39 41 38 36 35 35 33 34 38 39 39 38 38 39 40 40 39 38 38 38 39 38
37 38 35 35 36 37 37 35 37 37 38 38 38 39 39 38 37 38 37 37 37 38
33 36 37 37 37 38 38 37 36 39 39 39 39 39 37 36 36 35 35 35 34 34
36 36 36 34 34 36 36 37 37 36 38 38 38 38 37 35 34 33 32 32 32 30
36 35 33 32 33 33 34 36 34 31 28 33 35 34 34 32 29 24 22 22 22 22
30 33 31 32 33 35 33 31 28 24 23 24 24 23 24 24 23 23 22 21 21 21
29 32 31 31 32 32 30 27 23 22 23 23 23 23 23 23 23 22 22 23 22 22
28 32 31 32 31 31 28 25 22 22 22 23 23 22 21 22 22 22 22 23 22 21
31 30 31 31 30 30 24 21 21 21 21 24 23 24 25 25 23 23 22 21 20 22
34 35 34 34 33 25 21 21 20 21 24 24 24 26 26 26 24 23 22 20 21 19
34 35 35 35 30 26 22 20 21 24 25 25 24 26 27 28 26 25 24 22 21 20
33 33 34 32 31 30 24 23 25 27 26 26 26 27 28 28 28 26 24 24 22 21
34 35 34 33 31 30 26 26 27 27 27 26 25 26 26 26 25 22 22 22 21 21
33 35 35 35 31 27 25 27 25 24 24 24 25 23 23 24 22 21 21 20 19 20

GFSNIL_sfc_30mbdewp_030.txt.gz
Dewpoint
40 37 36 35 36 36 36 36 37 39 38 38 38 39 39 39 38 38 37 36 37 37
38 37 35 36 37 37 36 36 37 37 37 38 39 39 38 37 37 37 36 36 35 35
35 37 36 37 36 35 35 36 36 37 38 38 38 38 37 36 35 34 34 34 34 31
36 36 36 34 34 34 35 34 35 35 33 36 37 37 36 35 35 32 28 25 23 22
35 36 34 33 32 33 32 34 34 32 25 25 26 27 27 27 25 22 22 22 22 21
29 34 33 32 33 34 34 33 31 25 22 23 24 24 25 24 23 22 22 22 22 22
29 30 32 33 33 34 35 35 28 23 23 23 24 23 22 22 21 22 23 23 23 22
32 32 32 32 34 36 36 34 32 23 22 24 23 22 21 22 23 23 23 23 22 20
33 33 34 35 35 36 37 36 25 22 22 24 23 24 25 25 24 23 23 22 21 21
33 34 34 35 36 36 36 29 24 24 25 25 23 26 27 29 26 25 24 23 22 22
33 33 33 34 35 33 29 31 31 26 26 25 25 27 28 29 28 26 25 24 23 22
32 34 34 32 31 31 33 33 27 27 24 24 25 27 27 26 24 22 21 22 21 20
33 32 34 34 34 34 34 27 27 25 24 25 22 22 23 21 23 20 20 20 19 19
29 31 34 34 33 32 26 25 23 22 23 22 21 20 19 17 17 19 19 18 18 20

GFSNIL_sfc_30mbdewp_033.txt.gz
Dewpoint
38 36 35 35 35 35 35 35 36 37 38 37 38 38 38 38 37 37 36 36 35 35
38 36 35 35 36 36 36 36 36 37 37 37 38 38 38 37 36 36 34 33 34 34
33 36 36 36 36 37 36 35 36 37 37 38 38 37 37 36 35 34 33 33 31 25
33 36 36 36 36 36 35 35 35 35 34 33 34 34 34 32 33 29 24 23 22 21
33 36 36 36 35 34 33 34 35 33 29 25 27 26 24 24 24 22 21 22 22 22
29 30 31 33 33 33 35 35 35 34 34 29 25 24 24 24 23 22 22 22 23 22
31 31 31 32 33 34 35 35 36 37 32 30 26 25 23 22 21 22 23 23 23 23
32 32 32 32 34 35 36 36 37 36 35 26 25 22 21 22 23 23 23 23 23 23
32 33 34 34 34 35 35 36 37 30 25 26 23 24 25 26 26 25 24 24 24 23
33 32 32 33 33 34 35 35 29 30 28 25 24 25 28 28 28 26 26 25 23 22
29 32 32 33 33 30 31 33 33 30 26 24 25 28 28 26 23 22 22 21 21 21
30 32 32 33 32 33 33 32 27 26 23 23 23 23 24 23 22 20 19 20 20 19
28 30 30 33 32 33 32 28 26 23 24 23 19 21 19 18 18 17 19 18 18 19
27 28 29 33 31 32 30 26 23 22 23 21 20 18 18 18 17 18 18 18 19 20

GFSNIL_sfc_30mbdewp_036.txt.gz
Dewpoint
38 36 35 34 34 34 34 35 35 35 37 37 37 38 38 37 37 37 36 34 34 34
37 36 35 36 35 35 36 36 36 36 36 37 37 37 38 37 36 35 35 33 33 33
33 35 36 36 35 36 36 36 35 36 36 37 38 37 37 37 35 34 34 33 30 24
32 35 36 36 36 36 36 35 35 35 35 33 32 34 34 33 31 31 26 23 22 22
30 31 32 33 34 35 34 34 34 35 33 32 31 30 28 26 25 23 22 22 22 22
31 31 30 31 32 32 33 34 35 35 35 35 34 31 27 25 24 22 21 22 23 22
30 31 31 32 32 33 34 35 35 36 36 34 32 28 25 23 21 23 23 23 24 24
32 33 33 33 33 33 34 35 36 37 36 32 26 24 22 23 24 25 25 24 25 24
32 32 31 32 32 33 33 34 37 28 26 26 23 24 26 30 28 27 26 23 23 23
31 29 31 32 33 32 30 31 31 30 29 25 26 28 29 26 23 21 21 20 19 18
28 29 32 31 32 31 32 34 32 30 24 23 25 27 26 24 22 19 19 18 19 19
29 28 29 29 32 31 32 32 28 25 23 22 21 22 21 20 19 18 18 19 18 19
28 27 27 28 31 30 32 31 26 23 24 22 19 20 19 19 18 16 18 19 19 19
27 27 28 30 30 31 30 28 23 22 23 20 20 18 19 19 19 18 20 19 19 20

GFSNIL_sfc_30mbdewp_039.txt.gz
Dewpoint
41 39 38 37 37 37 36 36 38 38 38 38 39 39 39 39 39 37 36 35 34 33
40 39 38 38 38 38 38 37 37 38 38 37 38 39 39 37 35 34 33 35 35 34
35 35 37 38 37 37 37 36 36 36 37 37 38 38 36 35 33 33 33 33 32 28
34 34 35 34 33 33 34 33 33 34 35 36 35 33 32 31 29 29 28 26 25 24
32 33 31 30 31 33 33 33 34 35 35 34 35 34 34 35 27 25 24 24 23 23
32 31 30 31 33 32 31 31 32 36 36 36 35 35 33 28 26 24 23 24 24 23
31 32 32 33 32 31 32 32 32 36 37 36 35 33 27 24 23 25 26 26 24 24
33 33 32 30 32 31 33 32 33 35 36 31 27 24 24 25 27 26 24 23 22 21
33 31 30 31 31 32 32 30 31 30 28 28 26 28 30 27 23 21 18 16 14 14
30 29 29 30 30 31 32 31 32 32 32 28 27 28 27 25 20 18 15 14 14 14
28 29 29 28 28 31 31 32 34 32 26 24 25 24 23 22 18 16 15 15 15 15
29 28 27 27 29 30 29 31 31 28 24 22 20 22 20 19 19 18 17 17 16 17
29 28 27 28 28 29 31 30 31 26 23 22 20 20 19 19 20 20 18 17 16 17
29 28 27 27 28 30 31 30 29 25 24 22 21 20 19 19 20 19 18 16 15 15

GFSNIL_sfc_30mbdewp_042.txt.gz
Dewpoint
36 33 32 34 35 34 34 35 37 37 36 33 32 33 34 35 34 34 32 33 31 29
37 36 35 36 37 36 37 33 28 28 27 27 29 32 34 34 33 32 32 32 30 26
34 34 35 36 35 31 26 24 25 25 26 27 28 30 32 32 29 30 31 28 26 24
32 32 32 27 25 25 26 25 25 26 28 28 29 31 33 33 30 32 31 27 26 24
27 27 24 23 25 27 27 27 27 27 28 29 31 35 35 34 35 31 26 25 24 23
24 24 23 25 27 28 28 27 28 28 29 30 32 32 34 34 28 26 25 25 25 24
23 26 27 28 28 28 28 29 29 29 30 34 33 30 29 25 25 26 25 26 24 22
27 30 29 28 29 29 29 29 29 29 31 32 28 24 27 27 26 25 23 21 18 16
29 29 27 28 28 28 29 29 28 28 29 29 28 30 28 24 23 21 18 16 13 13
28 26 26 27 27 27 28 29 30 30 31 31 29 27 26 24 20 19 17 15 14 13
25 25 26 27 27 28 28 30 30 30 30 28 26 24 22 21 20 19 18 16 16 15
25 25 26 26 26 28 28 29 30 29 29 27 24 22 20 20 20 20 20 17 16 16
25 26 26 26 26 27 27 27 28 29 28 25 24 21 20 20 21 21 20 17 16 16
25 26 26 25 25 25 27 27 28 29 27 26 24 23 20 20 21 21 19 17 16 15

GFSNIL_sfc_30mbdewp_045.txt.gz
Dewpoint
39 35 34 32 33 33 33 33 34 34 32 28 26 26 28 29 31 33 35 35 32 31
37 34 33 34 35 34 35 31 26 26 26 26 26 26 27 29 29 33 33 32 31 32
34 33 34 35 34 32 28 25 24 24 25 25 26 27 27 27 29 32 30 29 31 29
34 33 33 31 26 24 26 25 25 25 25 25 26 26 28 31 31 33 30 31 29 28
33 30 27 24 23 25 26 27 26 25 26 26 26 27 32 33 31 31 30 28 28 26
27 26 23 23 26 26 26 27 27 27 28 27 29 32 33 30 30 31 28 27 26 25
24 23 24 25 27 26 27 27 27 28 28 29 32 30 30 30 28 28 28 27 24 20
21 26 27 27 27 27 28 28 28 27 27 28 28 26 28 27 28 27 24 19 18 17
22 25 26 25 27 26 26 27 27 28 28 29 28 29 27 24 24 21 18 17 17 15
24 24 23 24 24 25 26 27 28 28 29 29 30 28 26 23 21 20 19 18 17 16
22 23 23 23 24 25 26 27 29 29 29 29 30 26 23 22 21 20 20 19 18 16
21 22 23 23 24 25 26 28 29 28 29 29 29 24 22 20 21 21 21 19 17 17
22 22 23 24 25 25 25 26 29 29 27 30 29 25 22 21 22 22 21 19 18 18
22 22 23 25 25 24 25 26 29 30 28 29 29 28 23 21 21 22 21 19 18 17

GFSNIL_sfc_30mbdewp_048.txt.gz
Dewpoint
43 41 38 35 35 36 36 37 37 34 32 31 31 31 32 32 33 33 36 36 37 35
39 36 35 35 36 37 37 32 31 29 30 30 30 31 32 32 32 35 34 34 34 33
38 35 36 36 36 34 30 28 28 29 29 29 29 30 30 31 34 33 34 34 32 33
35 37 35 35 30 27 27 28 28 28 29 28 29 30 31 34 32 31 32 33 33 31
38 37 33 30 26 26 28 29 28 29 29 30 30 31 33 33 33 32 33 31 30 28
37 30 28 25 26 28 28 29 29 29 30 30 31 31 31 31 32 33 30 29 29 28
28 26 26 26 28 29 29 30 30 30 30 30 29 28 29 30 30 30 29 28 28 22
23 26 28 28 29 29 30 29 30 29 30 30 29 27 28 28 27 27 25 23 21 19
22 24 27 28 28 28 29 29 29 30 30 30 28 29 27 24 24 23 22 21 20 19
22 25 26 26 25 26 27 29 29 30 30 30 30 30 26 22 22 22 23 21 21 19
21 24 25 25 25 26 28 28 30 29 30 31 30 30 26 22 21 23 23 22 21 19
22 23 23 24 25 27 28 28 29 29 29 29 30 30 25 22 22 23 24 23 22 20
24 23 23 24 26 28 27 26 28 29 31 29 30 32 27 24 24 23 24 24 21 20
25 23 23 25 26 27 27 28 28 30 31 30 31 33 29 25 23 23 24 22 21 21

GFSNIL_sfc_30mbdewp_051.txt.gz
Dewpoint
42 39 38 37 37 37 38 38 31 30 30 30 30 31 31 31 31 32 35 35 35 36
38 36 35 36 38 37 33 30 29 29 28 29 30 30 30 31 31 33 33 34 34 33
37 36 37 37 36 34 30 29 29 29 29 29 29 30 30 33 34 32 31 33 33 33
36 37 37 36 34 28 28 29 29 29 29 29 30 32 33 33 33 32 32 33 32 31
38 38 37 36 28 29 29 30 30 30 29 31 31 32 32 31 32 32 32 31 29 29
37 37 34 29 29 30 29 30 30 30 30 30 31 29 30 31 33 31 31 30 29 28
36 34 29 29 30 30 30 29 30 30 30 32 29 29 30 30 29 30 29 28 28 25
27 29 29 30 30 30 29 29 31 30 32 31 29 27 27 27 27 25 24 23 23 20
26 28 28 28 27 28 30 29 29 31 31 30 29 29 28 25 23 23 22 21 23 20
26 26 26 26 26 26 28 28 30 30 30 30 30 30 29 24 21 21 22 23 22 20
25 25 25 26 28 27 28 28 31 29 29 29 30 31 30 25 21 22 23 24 22 21
25 26 28 28 27 26 28 28 28 29 29 29 29 31 31 26 22 23 23 24 23 23
29 29 28 27 26 28 28 27 28 28 30 30 30 31 31 28 27 23 23 23 23 21
30 28 26 25 27 27 27 28 27 28 29 30 30 30 32 31 28 24 23 23 22 21

GFSNIL_sfc_30mbdewp_054.txt.gz
Dewpoint
45 44 44 43 40 39 39 36 32 31 30 30 31 31 31 30 32 34 34 33 34 34
40 39 39 40 39 37 34 32 31 30 30 30 29 30 31 32 33 33 32 31 33 33
38 39 40 40 40 36 34 32 32 29 29 29 30 32 33 34 33 32 32 32 33 32
40 40 40 39 36 32 33 31 30 30 29 29 31 33 33 32 32 32 32 33 32 32
40 41 41 37 34 34 31 31 30 30 29 30 30 32 32 30 30 32 32 31 30 29
39 40 39 38 35 35 31 30 30 30 30 30 31 30 30 31 32 32 31 30 29 29
40 39 36 33 31 30 30 29 29 30 30 32 30 30 29 29 29 28 28 26 23 24
32 31 32 32 30 30 30 29 30 30 32 30 29 28 28 27 27 26 24 23 23 21
32 32 33 31 28 28 29 29 30 30 31 30 29 29 29 28 26 24 22 21 23 23
31 29 28 27 28 27 27 29 29 31 31 30 30 30 30 29 25 22 22 22 23 22
27 28 29 31 28 29 28 27 29 31 30 30 30 31 31 31 25 22 22 23 24 22
34 36 33 29 28 28 27 28 29 30 30 29 29 29 31 31 27 23 23 25 24 24
35 30 28 28 28 28 28 28 28 27 29 29 29 30 31 32 27 27 27 26 24 23
30 29 28 26 26 27 27 27 27 27 28 29 29 29 30 32 30 28 27 25 24 23

GFSNIL_sfc_30mbdewp_057.txt.gz
Dewpoint
50 47 46 46 45 41 39 36 36 39 35 32 32 30 30 31 31 33 33 32 32 33
47 45 43 42 40 37 38 41 41 33 33 33 30 30 31 31 33 33 32 31 32 33
43 41 40 40 40 40 40 40 36 34 35 31 31 32 33 33 33 32 32 32 32 32
41 41 41 40 40 42 40 38 38 39 35 33 31 33 33 32 32 31 31 32 32 32
41 42 42 42 40 39 40 40 38 36 32 30 31 33 32 30 30 30 30 31 31 30
44 43 39 38 40 39 38 38 35 31 30 30 31 31 30 30 30 32 32 31 30 29
42 42 41 40 38 37 35 32 30 30 30 32 31 30 29 30 30 29 29 29 26 24
43 41 37 35 32 32 32 30 30 31 32 31 30 29 28 28 28 27 26 26 24 23
34 33 33 34 32 30 29 29 32 31 30 30 30 29 29 28 27 27 26 24 22 23
34 31 29 28 30 32 32 31 29 29 31 30 30 30 30 30 28 27 25 23 22 22
29 31 35 38 38 33 29 28 28 28 30 30 30 31 31 31 30 26 24 23 23 23
37 37 37 34 30 29 28 27 28 29 30 30 29 30 30 30 30 28 26 24 24 25
37 33 30 29 28 27 27 27 28 28 28 28 29 29 30 30 30 28 27 27 27 28
30 29 28 26 26 27 27 27 27 27 27 28 28 29 30 30 30 29 28 28 27 26

GFSNIL_sfc_30mbdewp_060.txt.gz
Dewpoint
53 50 47 46 46 43 40 38 38 40 39 39 37 33 32 32 31 32 33 32 32 32
52 49 47 46 43 41 38 39 42 39 38 39 35 34 35 31 30 33 32 31 31 31
51 47 45 43 41 39 41 42 38 40 40 36 36 35 32 32 32 32 32 32 31 31
46 43 42 41 40 42 42 40 41 39 39 37 35 33 33 33 32 32 31 31 31 32
42 41 41 41 43 43 41 43 40 40 37 36 35 32 32 32 31 30 29 30 31 31
42 41 42 43 42 42 42 41 39 38 36 35 32 32 32 31 30 30 31 31 31 30
44 43 42 41 41 40 39 38 37 36 34 32 32 31 31 30 30 30 30 30 30 29
44 44 42 39 39 40 39 37 33 32 32 32 32 30 30 29 29 28 27 27 27 25
43 39 38 38 37 35 32 32 34 34 32 31 31 30 30 29 28 27 27 26 26 24
36 35 34 32 34 37 38 37 35 32 31 30 31 31 30 30 29 28 27 26 25 23
31 35 38 38 38 39 36 32 29 28 28 29 30 31 31 31 31 29 28 27 25 24
37 37 37 38 37 32 29 28 27 27 28 29 29 30 31 31 30 30 29 28 26 25
38 38 34 31 29 28 27 27 27 27 27 28 28 29 30 31 29 28 28 28 27 27
30 28 28 26 26 26 26 26 26 26 27 27 27 27 28 30 31 29 28 28 28 28

GFSNIL_sfc_30mbdewp_063.txt.gz
Dewpoint
54 53 52 49 48 47 45 43 42 40 39 40 40 37 37 34 35 35 35 35 36 33
56 54 52 49 49 47 44 42 40 40 41 40 40 38 35 37 35 34 36 35 34 33
56 54 52 50 48 46 42 41 41 41 41 43 39 38 38 35 34 34 34 34 34 32
56 54 51 49 47 43 42 42 41 43 43 39 39 37 35 34 34 34 34 33 33 32
52 49 47 45 44 44 42 43 43 41 40 39 37 37 35 33 32 33 33 32 32 31
46 45 45 44 44 44 44 43 42 41 39 38 38 36 34 33 33 33 32 31 31 29
45 44 44 44 44 44 43 40 40 41 41 38 36 33 33 32 33 32 32 32 31 30
45 45 44 43 42 41 41 41 41 38 35 35 35 33 33 32 32 31 31 31 29 29
43 42 41 41 41 40 36 34 36 36 35 35 35 32 31 31 31 30 29 29 28 28
39 39 38 36 35 36 39 40 40 38 36 34 33 32 31 31 31 30 30 29 28 27
35 37 39 40 39 39 40 38 35 32 31 31 30 30 31 32 32 31 31 30 29 28
38 38 38 38 39 36 32 31 29 29 29 29 29 30 29 30 31 31 30 30 30 29
40 39 36 32 30 30 28 27 28 27 28 28 28 30 29 29 30 30 30 29 30 30
28 27 27 27 27 27 27 28 28 29 29 29 29 28 29 29 29 30 30 29 29 29

GFSNIL_sfc_30mbdewp_066.txt.gz
Dewpoint
58 57 57 54 53 51 49 49 48 46 44 43 42 40 40 40 38 37 37 34 32 29
57 56 55 55 53 51 50 49 47 45 44 42 42 41 42 40 37 37 36 34 33 30
57 57 56 56 52 51 52 49 46 45 43 42 44 43 39 39 37 36 35 32 31 31
56 57 57 56 53 52 50 47 45 44 43 44 42 41 40 36 36 34 32 31 31 31
57 56 53 51 49 48 46 44 44 45 43 43 40 39 39 39 34 32 30 30 30 30
50 49 48 46 46 44 44 44 44 43 41 40 40 41 40 37 32 32 30 30 29 29
47 46 46 46 45 45 45 43 42 41 41 43 42 38 36 32 31 31 30 30 30 29
46 46 45 45 43 43 42 42 42 42 41 41 37 34 34 33 32 31 30 29 29 30
44 44 44 42 41 41 40 38 38 37 37 36 36 36 35 33 32 30 28 28 27 27
43 42 40 37 36 35 37 38 38 39 40 38 35 33 33 32 31 29 28 27 27 26
39 37 37 39 39 40 39 39 38 34 31 30 28 29 29 31 30 28 27 27 27 27
38 39 39 38 39 39 36 31 29 27 27 25 25 27 29 30 27 26 26 26 26 25
38 39 38 34 30 29 27 24 24 25 26 28 28 30 29 29 27 27 28 28 27 28
30 28 27 26 26 25 26 28 30 29 28 25 24 24 26 28 24 24 24 23 23 24

GFSNIL_sfc_30mbdewp_069.txt.gz
Dewpoint
58 57 58 58 56 56 54 54 52 50 49 49 48 46 46 43 42 40 40 39 38 37
58 58 58 59 57 56 55 53 52 51 50 49 47 45 43 42 42 41 41 39 40 36
58 58 58 57 56 55 54 52 52 52 52 49 44 44 44 43 43 40 39 39 37 35
57 57 57 57 57 56 54 54 52 50 45 44 44 43 43 41 38 38 39 38 37 32
57 57 57 57 53 51 47 46 45 44 44 44 43 42 40 39 41 40 39 37 34 32
54 52 50 47 46 45 45 45 45 44 43 42 41 40 41 42 40 38 37 35 32 30
49 48 47 46 45 46 46 45 44 43 42 41 42 42 41 39 39 37 34 34 32 31
47 47 46 45 45 44 44 43 42 41 42 43 42 40 38 36 36 35 33 32 30 30
46 45 44 44 44 42 42 42 42 41 41 40 38 35 35 36 34 32 31 29 28 27
45 44 42 41 40 39 38 38 38 39 39 38 38 37 34 32 29 28 27 27 27 26
42 39 38 37 37 38 39 39 39 39 35 31 29 28 28 29 27 25 24 25 25 26
40 38 39 39 39 39 39 38 32 29 27 26 25 30 29 28 28 28 27 27 26 25
38 38 39 39 37 33 30 27 24 23 25 28 28 27 27 25 24 24 23 23 22 23
36 34 31 30 28 25 25 26 30 30 28 24 24 25 26 25 22 23 22 19 20 21

GFSNIL_sfc_30mbdewp_072.txt.gz
Dewpoint
57 57 56 57 58 57 57 56 55 55 54 53 52 51 51 48 44 42 42 41 41 40
59 58 58 59 59 58 57 56 55 54 53 52 51 49 47 45 43 43 42 42 41 41
59 60 59 60 59 57 57 54 54 52 51 49 48 47 45 44 43 42 42 42 40 41
59 59 59 58 58 57 56 54 53 50 47 45 44 43 43 43 42 41 40 41 41 40
59 58 58 58 56 54 53 50 48 46 44 43 43 43 43 42 41 40 40 40 40 39
56 54 52 50 49 49 48 46 45 44 44 43 43 42 42 41 41 42 41 40 39 38
50 49 48 47 47 46 46 45 44 44 43 42 41 41 41 42 42 41 40 40 38 36
47 47 46 46 46 46 45 44 43 42 42 41 42 42 42 41 40 38 38 36 36 35
46 46 45 45 44 43 43 42 41 41 42 42 41 39 38 35 36 35 33 32 32 32
45 44 44 43 43 42 42 42 40 40 40 39 39 37 36 34 31 29 29 29 28 28
44 42 41 40 39 39 38 38 40 40 40 39 32 31 30 28 29 29 30 30 29 27
40 39 38 38 38 39 40 41 40 37 30 31 30 27 26 28 28 26 26 25 25 25
40 39 39 39 40 40 40 37 28 27 30 29 27 27 25 24 25 25 24 23 21 21
39 39 40 39 35 30 27 32 32 30 27 24 28 27 24 22 22 21 20 19 20 21

GFSNIL_sfc_30mbdewp_078.txt.gz
Dewpoint
56 55 53 51 54 55 56 57 58 59 58 56 55 54 54 51 49 47 47 47 47 45
57 55 53 52 53 57 57 57 58 58 56 55 54 53 50 48 47 48 47 46 45 45
56 56 54 54 54 56 57 57 57 56 55 54 52 50 49 48 47 46 45 45 44 44
55 56 56 55 56 57 57 56 56 56 54 51 50 48 47 47 46 45 44 44 43 43
57 56 57 58 57 57 57 57 56 53 52 50 48 46 46 45 44 43 43 43 43 42
57 58 57 58 57 58 57 54 52 51 49 47 46 45 44 44 43 43 43 42 41 40
55 56 56 54 54 53 52 50 48 48 46 45 44 44 43 43 42 42 41 41 42 41
50 50 50 49 49 48 48 47 46 45 44 44 43 43 42 42 41 41 41 41 40 37
48 48 47 47 46 46 45 44 44 43 43 42 41 41 41 42 41 38 34 30 29 29
47 46 45 45 45 44 44 43 43 42 42 41 41 41 40 37 34 29 28 27 25 24
46 45 44 44 43 43 43 42 42 41 41 40 38 39 36 31 29 27 26 24 22 20
44 43 43 42 42 42 41 40 40 39 35 32 31 31 29 27 26 24 21 20 21 21
43 42 42 41 40 40 39 39 38 33 30 28 28 28 26 24 22 18 17 19 19 20
41 41 40 40 39 39 34 32 32 29 27 26 26 27 25 21 19 17 17 16 17 19

GFSNIL_sfc_30mbdewp_081.txt.gz
Dewpoint
51 52 53 52 52 52 53 54 56 58 58 58 58 56 55 54 51 50 49 47 46 47
51 52 53 54 53 53 53 54 56 57 58 58 57 55 54 52 50 49 49 48 48 47
52 55 56 56 55 53 55 57 57 57 56 55 55 54 52 51 49 49 48 47 47 46
52 55 57 56 55 54 57 57 57 56 55 55 54 52 51 49 48 47 46 45 45 44
53 55 56 56 55 56 56 57 57 56 55 54 52 50 49 48 47 46 45 45 44 44
55 56 56 56 55 56 56 56 57 56 53 52 50 49 47 47 46 45 45 44 43 43
55 56 56 56 57 56 57 56 56 54 52 50 48 47 46 45 44 44 43 43 43 42
54 54 54 55 54 53 53 51 51 49 47 46 46 45 45 44 43 42 42 42 42 37
51 51 50 49 49 49 47 47 46 46 45 44 44 44 43 43 42 41 40 32 31 30
48 48 47 47 46 46 45 45 44 43 43 43 42 42 42 40 36 33 30 28 26 22
47 46 46 45 45 44 43 43 43 43 43 42 41 40 36 32 29 27 25 24 22 20
46 44 44 43 43 43 42 42 41 40 39 38 38 35 31 28 27 23 20 20 21 20
44 44 43 42 42 42 41 40 36 33 32 32 31 30 28 26 23 19 18 18 19 20
43 43 42 41 40 38 36 34 31 28 28 28 27 27 25 22 20 19 17 16 17 19

GFSNIL_sfc_30mbdewp_084.txt.gz
Dewpoint
49 49 49 49 49 49 49 50 53 56 57 57 57 57 56 55 54 54 52 51 48 47
50 49 49 50 51 52 52 53 53 55 56 57 57 57 56 55 54 53 52 51 48 48
49 50 51 52 53 53 53 53 54 55 56 56 56 56 55 54 53 52 51 51 49 48
49 50 50 51 53 54 55 54 55 56 56 56 56 54 54 53 52 52 51 48 48 47
49 49 51 53 54 55 55 55 55 56 56 56 56 54 53 51 51 50 48 47 47 46
50 51 51 53 55 56 55 55 56 56 56 56 54 52 51 50 49 48 48 46 46 45
51 52 53 55 55 56 55 55 55 56 56 56 52 51 49 48 47 47 46 45 45 44
51 53 54 54 55 55 55 55 56 55 53 51 50 49 48 47 46 45 44 43 42 40
53 53 53 53 52 53 52 51 51 50 49 47 47 46 46 45 44 43 41 36 34 32
51 51 50 50 50 49 48 47 46 45 45 44 43 43 43 43 41 38 35 31 27 24
49 49 48 47 47 45 45 44 43 43 43 42 40 38 36 34 31 29 28 26 24 25
47 46 45 44 43 43 43 42 41 40 40 38 35 34 32 29 27 26 24 22 22 22
45 44 43 43 42 42 40 37 35 34 34 34 32 32 30 27 24 21 19 19 20 21
43 43 42 41 40 38 35 32 30 29 28 27 28 28 26 24 22 20 18 16 17 18

GFSNIL_sfc_30mbdewp_087.txt.gz
Dewpoint
50 50 49 49 48 48 48 49 51 53 54 55 55 56 56 57 57 56 55 54 53 52
51 50 49 49 50 50 51 51 52 53 54 55 56 56 57 57 57 57 56 54 53 52
51 51 51 51 50 50 51 52 52 53 54 54 56 57 57 57 57 56 55 54 52 52
51 52 52 52 52 52 52 53 53 52 53 54 55 56 56 56 56 54 54 52 51 51
51 51 52 52 52 52 53 53 53 53 54 54 55 56 55 55 54 54 53 52 51 50
50 50 50 51 51 51 52 52 53 54 54 54 55 55 56 55 54 53 52 51 49 49
50 50 50 50 51 52 53 54 54 55 56 56 56 56 56 53 52 51 50 49 48 47
50 50 50 51 52 53 54 55 56 56 56 56 56 54 52 51 50 49 47 46 44 44
50 51 52 53 54 55 56 56 56 56 55 53 52 51 49 49 47 46 41 38 36 34
52 52 53 53 53 53 53 51 50 49 48 47 46 45 45 44 42 39 36 33 31 30
51 51 51 50 49 47 46 45 44 44 43 41 38 38 37 36 34 32 30 29 28 27
49 47 46 45 44 44 42 40 39 39 37 35 33 33 32 31 29 27 26 27 26 25
45 45 43 43 41 39 37 35 34 33 33 32 31 31 29 27 25 23 21 20 22 25
43 42 41 40 38 35 33 31 29 29 28 28 29 28 27 25 23 21 19 18 19 18